{"data":{"norad_id":47536,"epoch":"2026-09-20T23:56:05.462880Z","epoch_age_seconds":39307,"freshness":"FRESH","line1":"1 47536U 21007E   26263.99728545 -.00000055  00000+0  53071-4 0  9993","line2":"2 47536  63.4013 255.8986 0184402   0.9653 359.1694 13.45451624277108","mean_motion":13.45451624,"eccentricity":0.0184402,"inclination_deg":63.4013,"raan_deg":255.8986,"arg_perigee_deg":0.9653,"mean_anomaly_deg":359.1694,"bstar":5.3071e-5,"rev_number":27710,"period_min":107.02725942081,"perigee_km":951.3438299205,"apogee_km":1226.7363070776,"semimajor_km":7467.177068499,"source":"CELESTRAK","updated_at":"2026-09-21T09:00:07.527701Z"}}